スペースウォッチ彗星

125P/Spacewatch (2002)

English version
Home page
Total 6,336 html files since Dec. 4, 1995
Updated on September 23, 2007

---------------------------------------------------------------------

・ プロフィール

・ 軌道要素

Epoch 2002 Feb. 15.0 TT = JDT 2452320.5  
T 2002 Jan. 28.04771 TT                                 Muraoka 
q   1.5285830            (2000.0)            P               Q
n   0.17803743     Peri.   87.30198     -0.48502850     +0.87100822
a   3.1294055      Node   153.23664     -0.85532447     -0.45391326
e   0.5115420      Incl.    9.98146     -0.18211920     -0.18790270
P   5.54
From 158 observations 1991-1996, mean residual 0".59.

・ 星図

・ 光度変化

        m1 = 14.0 + 5 logΔ + 13.0 log r          [   ,-55]  (              〜2001年12月 4日)
        m1 =  6.4 + 5 logΔ + 45   log r(t - 20)  [-55,112]  (2001年12月 4日〜2002年 5月20日)
        m1 = 14.0 + 5 logΔ + 13.0 log r          [112,   ]  (2002年 5月20日〜              )

---------------------------------------------------------------------

軌道要素は村岡健治氏の計算によるものです。
星図は StellaNavigator Ver.2.0 for Windows (アストロアーツ 編著 / アスキー出版局刊) で作成したものです。
光度グラフはComet for Windowsで作成したものです。

---------------------------------------------------------------------

Copyright(C) 1995-2008 Seiichi Yoshida (comet@aerith.net). All rights reserved.